Weather Service Report


031 
ASUS46 KSTO 180209
RWRCA 

NORTHERN AND CENTRAL CA REGIONAL WEATHER ROUNDUP
NATIONAL WEATHER SERVICE SACRAMENTO CA 
600 PM PST WED DEC 17 2014

NOTE: FAIR INDICATES FEW OR NO CLOUDS BELOW 12,000 FEET WITH NO
SIGNIFICANT WEATHER AND/OR OBSTRUCTIONS TO VISIBILITY.

CAZ001-003-180300-
NORTHWEST AREA
  
CITY           SKY/WX    TMP DP  RH WIND       PRES   REMARKS
CRESCENT CITY  LGT RAIN  49  48  97 E6        29.94S                  
ARCATA         NOT AVBL                                               
SHELTER COVE   NOT AVBL                                               
UKIAH          LGT RAIN  49  45  86 S3        30.01R                  
$$

CAZ006-505>513-180300-
BAY AREA
  
CITY           SKY/WX    TMP DP  RH WIND       PRES   REMARKS
SANTA ROSA     LGT RAIN  51  49  92 E6        30.01S                  
SAN RAFAEL     N/A       56  MM  MM MISG
NAPA           LGT RAIN  52  51  97 S5        30.04S                  
CONCORD        RAIN      54  48  80 S7        30.05S                  
OAKLAND CITY   N/A       54  MM  MM MISG
OAKLAND        LGT RAIN  53  50  89 SE5       30.06R                  
SAN FRAN CITY  N/A       53  MM  80 MISG
SAN FRAN ARPT  LGT RAIN  56  52  86 E8        30.04S                  
LIVERMORE      LGT RAIN  54  50  86 CALM      30.06R                  
HAYWARD        LGT RAIN  52  49  89 SE5       30.06R                  
REDWOOD CITY   N/A       MM  MM  MM MISG
MOFFETT ARPT   LGT RAIN  54  51  90 SE6       30.06S                  
SAN JOSE ARPT  LGT RAIN  53  53 100 E7        30.06S                  
$$
CAZ034-037-514>518-180300-
CENTRAL COAST
  
CITY           SKY/WX    TMP DP  RH WIND       PRES   REMARKS
WATSONVILLE    LGT RAIN  54  51  90 NE3       30.08S                  
SALINAS        LGT RAIN  56  50  80 E3        30.08R                  
MONTEREY       LGT RAIN  54  48  80 SE5       30.07S                  
PT PIEDRAS BLS NOT AVBL                                               
SAN LUIS OBISP PTCLDY    50  48  93 NE3       30.10S                  
SANTA MARIA    MOCLDY    53  46  77 CALM      30.11R                  
$$
CAZ015-016-180300-
NORTHERN SACRAMENTO VALLEY
  
CITY           SKY/WX    TMP DP  RH WIND       PRES   REMARKS
REDDING        LGT RAIN  50  49  96 S6        29.99R                  
RED BLUFF      LGT RAIN  52  49  89 SE15      30.01R                  
OROVILLE       CLOUDY    53  46  77 SE10      30.05R                  
$$
CAZ016>018-180300-
SOUTHERN SACRAMENTO VALLEY
  
CITY           SKY/WX    TMP DP  RH WIND       PRES   REMARKS
AUBURN         CLOUDY    46  45  93 E10       30.05S                  
BEALE AFB      CLOUDY    51  46  82 SE9       30.04R                  
LINCOLN        MOCLDY    52  45  76 E8        30.05R                  
MARYSVILLE     CLOUDY    53  47  79 SE8       30.05R                  
SAC INTL ARPT  CLOUDY    53  49  86 SE9       30.04S                  
MATHER AIRPORT PTCLDY    50  50 100 SE7       30.06R                  
DOWNTOWN SAC   N/A       54  MM  MM MISG
SAC EXEC ARPT  CLOUDY    56  48  74 SE6       30.05S                  
VACAVILLE      LGT RAIN  53  49  86 SW3       30.06R                  
TRAVIS AFB     MOCLDY    52  48  87 S5        30.04R                  
$$
CAZ019>021-180300-
SAN JOAQUIN VALLEY
  
CITY           SKY/WX    TMP DP  RH WIND       PRES   REMARKS
STOCKTON       CLOUDY    54  47  77 SE5       30.05R                  
MODESTO        CLOUDY    54  47  77 SE5       30.07R                  
MERCED         MOCLDY    52  46  80 E5        30.08R                  
LEMOORE        MOCLDY    53  48  83 SE5       30.10R                  
FRESNO         PTCLDY    52  47  83 SE6       30.10R                  
HANFORD        PTCLDY    51  48  89 SE3       30.10S                  
PORTERVILLE    PTCLDY    48  45  87 SE3       30.09F                  
BAKERSFIELD    PTCLDY    52  46  80 SE6       30.09S                  
$$
CAZ011-012-071-180300-
NORTHERN MOUNTAINS
  
CITY           SKY/WX    TMP DP  RH WIND       PRES   REMARKS
YREKA          CLOUDY    41  38  89 N3        29.94R                  
MOUNT SHASTA   CLOUDY    40  36  86 E5        29.95R                  
ALTURAS        LGT RAIN  38  35  89 S5        29.95R WCI  34          
$$
CAZ011-012-071-180300-
SIERRA NEVADA MTNS
  
CITY           SKY/WX    TMP DP  RH WIND       PRES   REMARKS
BLUE CANYON    SNOW      32  30  92 S8        30.03R VSB 1/4 WCI  25  
TRUCKEE        CLOUDY    32  28  86 CALM      29.99S                  
TAHOE VLY ARPT CLOUDY    35  23  61 S6        29.99R WCI  30          
MAMMOTH LAKES  CLOUDY    25  23  93 CALM      30.00                   
$$
  

Return to Home page


Western Regional Climate Center, wrcc@dri.edu